Auburn, IN

4:57 PM EDT on May 23, 2018 (GMT -0400)
Auburn

Weather History for KGWB - June, 2013

Change the Weather History Date:

Wednesday, June 5, 2013

  Actual Average (KFWA) Record (KFWA)
Temperature  
Mean Temperature 63 °F -  
Max Temperature 75 °F 76 °F 97 °F (1925)
Min Temperature 51 °F 56 °F 41 °F (1954)
Degree Days  
Heating Degree Days 2    
Growing Degree Days 13 (Base 50)    
Moisture  
Dew Point 46 °F    
Average Humidity 52    
Maximum Humidity 77    
Minimum Humidity 33    
Precipitation  
Precipitation 0.00 in - - ()
Sea Level Pressure  
Sea Level Pressure 30.07 in    
Wind  
Wind Speed 7 mph (ENE)    
Max Wind Speed 14 mph    
Max Gust Speed 16 mph    
Visibility 10 miles    
Events      
Averages and records for this station are not official NWS values.
T = Trace of Precipitation, MM = Missing Value Source: NWS Daily Summary

Daily Weather History Graph

Daily Weather History Graph

Search for Another Location

Airport or City:

Astronomy

Jun. 05, 2013 Rise Set
Actual Time 6:07 AM EDT 9:10 PM EDT
Civil Twilight 5:34 AM EDT 9:43 PM EDT
Nautical Twilight 4:51 AM EDT 10:26 PM EDT
Astronomical Twilight 4:02 AM EDT 11:16 PM EDT
Moon 4:13 AM EDT (6/5) 6:34 PM EDT (6/5)
Length of Visible Light 16h 09m
Length of Day
15h 02m
Waning Crescent, 8% of the Moon is Illuminated
Jun 5
Waning Crescent
Jun 8
New
Jun 16
First Quarter
Jun 23
Full
Jun 30
Last Quarter

Hourly Weather History & Observations

Time (EDT) Temp. Dew Point Humidity Pressure Visibility Wind Dir Wind Speed Gust Speed Precip Events Conditions
12:15 AM 59.0 °F 44.6 °F 59% 30.15 in 10.0 mi East 6.9 mph - N/A   Clear
12:35 AM 59.0 °F 44.6 °F 59% 30.15 in 10.0 mi East 5.8 mph - N/A   Clear
12:55 AM 59.0 °F 42.8 °F 55% 30.15 in 10.0 mi East 8.1 mph - N/A   Clear
1:15 AM 59.0 °F 42.8 °F 55% 30.15 in 10.0 mi East 5.8 mph - N/A   Clear
1:35 AM 59.0 °F 41.0 °F 51% 30.15 in 10.0 mi East 8.1 mph - N/A   Clear
1:55 AM 59.0 °F 41.0 °F 51% 30.14 in 10.0 mi East 8.1 mph - N/A   Clear
2:15 AM 59.0 °F 41.0 °F 51% 30.13 in 10.0 mi East 5.8 mph - N/A   Clear
2:35 AM 59.0 °F 41.0 °F 51% 30.13 in 10.0 mi East 5.8 mph - N/A   Clear
2:55 AM 59.0 °F 41.0 °F 51% 30.13 in 10.0 mi East 6.9 mph - N/A   Clear
3:15 AM 57.2 °F 41.0 °F 55% 30.13 in 10.0 mi East 4.6 mph - N/A   Clear
3:35 AM 57.2 °F 41.0 °F 55% 30.12 in 10.0 mi East 5.8 mph - N/A   Clear
3:55 AM 55.4 °F 42.8 °F 63% 30.12 in 10.0 mi ENE 4.6 mph - N/A   Clear
4:15 AM 53.6 °F 42.8 °F 67% 30.13 in 10.0 mi East 3.5 mph - N/A   Clear
4:35 AM 53.6 °F 42.8 °F 67% 30.13 in 10.0 mi NE 3.5 mph - N/A   Clear
4:55 AM 51.8 °F 42.8 °F 71% 30.14 in 10.0 mi ENE 4.6 mph - N/A   Clear
5:15 AM 51.8 °F 44.6 °F 76% 30.14 in 10.0 mi ENE 4.6 mph - N/A   Clear
5:35 AM 51.8 °F 42.8 °F 71% 30.14 in 10.0 mi ENE 4.6 mph - N/A   Clear
5:55 AM 51.8 °F 42.8 °F 71% 30.14 in 10.0 mi ENE 5.8 mph - N/A   Clear
6:15 AM 51.8 °F 44.6 °F 76% 30.13 in 10.0 mi East 6.9 mph - N/A   Clear
6:35 AM 53.6 °F 44.6 °F 72% 30.13 in 10.0 mi East 5.8 mph - N/A   Clear
6:55 AM 53.6 °F 44.6 °F 72% 30.14 in 10.0 mi ENE 5.8 mph - N/A   Clear
7:15 AM 53.6 °F 46.4 °F 77% 30.15 in 10.0 mi East 5.8 mph - N/A   Clear
7:35 AM 55.4 °F 46.4 °F 72% 30.14 in 10.0 mi ENE 5.8 mph - N/A   Clear
7:55 AM 57.2 °F 46.4 °F 67% 30.15 in 10.0 mi ENE 5.8 mph - N/A   Clear
8:15 AM 59.0 °F 46.4 °F 63% 30.15 in 10.0 mi East 8.1 mph - N/A   Clear
8:35 AM 59.0 °F 48.2 °F 67% 30.15 in 10.0 mi ENE 9.2 mph - N/A   Clear
8:55 AM 60.8 °F 48.2 °F 63% 30.14 in 10.0 mi ENE 8.1 mph - N/A   Clear
9:15 AM 60.8 °F 46.4 °F 59% 30.13 in 10.0 mi East 9.2 mph - N/A   Clear
9:35 AM 62.6 °F 46.4 °F 55% 30.13 in 10.0 mi East 10.4 mph - N/A   Clear
9:55 AM 62.6 °F 46.4 °F 55% 30.11 in 10.0 mi East 9.2 mph - N/A   Clear
10:15 AM 64.4 °F 46.4 °F 52% 30.10 in 10.0 mi East 10.4 mph - N/A   Clear
10:35 AM 64.4 °F 46.4 °F 52% 30.10 in 10.0 mi East 10.4 mph - N/A   Clear
10:55 AM 66.2 °F 48.2 °F 52% 30.08 in 10.0 mi East 9.2 mph - N/A   Clear
11:15 AM 68.0 °F 46.4 °F 46% 30.08 in 10.0 mi East 10.4 mph - N/A   Clear
11:35 AM 68.0 °F 48.2 °F 49% 30.08 in 10.0 mi East 5.8 mph - N/A   Clear
11:55 AM 69.8 °F 50.0 °F 49% 30.08 in 10.0 mi East 6.9 mph 10.4 mph N/A   Clear
12:15 PM 69.8 °F 50.0 °F 49% 30.08 in 10.0 mi East 5.8 mph - N/A   Clear
12:35 PM 69.8 °F 50.0 °F 49% 30.07 in 10.0 mi ENE 5.8 mph - N/A   Clear
12:55 PM 71.6 °F 50.0 °F 46% 30.06 in 10.0 mi East 8.1 mph - N/A   Clear
1:15 PM 71.6 °F 50.0 °F 46% 30.07 in 10.0 mi ENE 8.1 mph - N/A   Clear
1:35 PM 73.4 °F 50.0 °F 44% 30.07 in 10.0 mi East 8.1 mph - N/A   Clear
1:55 PM 73.4 °F 51.8 °F 47% 30.06 in 10.0 mi ENE 8.1 mph - N/A   Clear
2:15 PM 73.4 °F 51.8 °F 47% 30.05 in 10.0 mi ENE 6.9 mph - N/A   Clear
2:35 PM 73.4 °F 50.0 °F 44% 30.04 in 10.0 mi ESE 5.8 mph - N/A   Clear
2:55 PM 73.4 °F 50.0 °F 44% 30.04 in 10.0 mi East 4.6 mph - N/A   Clear
3:15 PM 73.4 °F 48.2 °F 41% 30.03 in 10.0 mi Calm Calm - N/A   Clear
3:35 PM 73.4 °F 50.0 °F 44% 30.02 in 10.0 mi East 5.8 mph - N/A   Clear
3:55 PM 75.2 °F 48.2 °F 38% 30.01 in 10.0 mi ENE 5.8 mph - N/A   Clear
4:15 PM 75.2 °F 48.2 °F 38% 30.01 in 10.0 mi East 8.1 mph - N/A   Scattered Clouds
4:35 PM 75.2 °F 46.4 °F 36% 30.00 in 10.0 mi East 6.9 mph - N/A   Clear
4:55 PM 75.2 °F 48.2 °F 38% 30.00 in 10.0 mi ENE 9.2 mph - N/A   Clear
5:15 PM 75.2 °F 50.0 °F 41% 30.00 in 10.0 mi East 6.9 mph - N/A   Clear
5:35 PM 73.4 °F 46.4 °F 38% 29.99 in 10.0 mi Calm Calm - N/A   Clear
5:55 PM 73.4 °F 48.2 °F 41% 29.98 in 10.0 mi East 5.8 mph - N/A   Clear
6:15 PM 73.4 °F 48.2 °F 41% 29.98 in 10.0 mi ENE 6.9 mph - N/A   Clear
6:35 PM 73.4 °F 50.0 °F 44% 29.98 in 10.0 mi ENE 8.1 mph - N/A   Clear
6:55 PM 71.6 °F 48.2 °F 43% 29.97 in 10.0 mi ENE 6.9 mph - N/A   Clear
7:15 PM 73.4 °F 46.4 °F 38% 29.97 in 10.0 mi ENE 9.2 mph - N/A   Clear
7:35 PM 73.4 °F 48.2 °F 41% 29.96 in 10.0 mi ENE 11.5 mph - N/A   Clear
7:55 PM 71.6 °F 48.2 °F 43% 29.96 in 10.0 mi NE 10.4 mph - N/A   Clear
8:15 PM 69.8 °F 44.6 °F 40% 29.97 in 10.0 mi ENE 13.8 mph - N/A   Clear
8:35 PM 68.0 °F 42.8 °F 40% 29.97 in 10.0 mi ENE 10.4 mph 16.1 mph N/A   Clear
8:55 PM 68.0 °F 37.4 °F 33% 29.97 in 10.0 mi NE 13.8 mph - N/A   Clear
9:15 PM 64.4 °F 35.6 °F 34% 29.97 in 10.0 mi ENE 9.2 mph - N/A   Clear
9:35 PM 62.6 °F 33.8 °F 34% 29.96 in 10.0 mi ENE 8.1 mph - N/A   Clear
9:55 PM 62.6 °F 33.8 °F 34% 29.97 in 10.0 mi ENE 10.4 mph - N/A   Clear
11:55 PM 59.0 °F 42.8 °F 55% 29.97 in 10.0 mi ENE 8.1 mph - N/A   Clear